When you browse on this site, cookies collect data to enhance your experience and personalize the content and advertising you see.
Visit our Privacy Policy to learn more. By continuing to use the site, you agree to this use of cookies and data.
  • In Sweden
  • List of Countries
  • For 7 days
  • Water Temperature
  • Weather Map
  • Weather Widgets
  • user-avatar
    Login

    Hourly Weather Belém

    Today, 6 June, Saturday

    Time Temperature Precipitation Wind Pressure Humidity
    00:00 +26°C° 0.2 mm 2 mps 760 mmHg 96%
    01:00 +25°C° 0.2 mm 2 mps 759 mmHg 96%
    02:00 +25°C° 0.2 mm 2 mps 759 mmHg 96%
    03:00 +25°C° 0.2 mm 2 mps 758 mmHg 96%
    04:00 +25°C° 0 mm 2 mps 758 mmHg 97%
    05:00 +25°C° 0 mm 1 mps 759 mmHg 97%
    06:00 +24°C° 0 mm 1 mps 759 mmHg 97%
    07:00 +25°C° 0.2 mm 1 mps 759 mmHg 95%
    08:00 +27°C° 0.2 mm 1 mps 759 mmHg 93%
    09:00 +28°C° 0.2 mm 1 mps 760 mmHg 91%
    10:00 +29°C° 0.6 mm 2 mps 760 mmHg 86%
    11:00 +30°C° 0.6 mm 2 mps 759 mmHg 81%
    12:00 +31°C° 0.6 mm 2 mps 759 mmHg 75%
    13:00 +31°C° 0.5 mm 2 mps 759 mmHg 78%
    14:00 +31°C° 0.5 mm 2 mps 758 mmHg 80%
    15:00 +31°C° 0.5 mm 2 mps 757 mmHg 83%
    16:00 +30°C° 0.7 mm 2 mps 757 mmHg 86%
    17:00 +29°C° 0.7 mm 2 mps 757 mmHg 89%
    18:00 +27°C° 0.7 mm 2 mps 758 mmHg 93%
    19:00 +27°C° 0.3 mm 2 mps 758 mmHg 93%
    20:00 +26°C° 0.3 mm 2 mps 759 mmHg 94%
    21:00 +26°C° 0.3 mm 3 mps 759 mmHg 95%
    22:00 +26°C° 0.3 mm 2 mps 759 mmHg 95%
    23:00 +26°C° 0.3 mm 2 mps 759 mmHg 95%

    Tomorrow, 7 June, Sunday

    Time Temperature Precipitation Wind Pressure Humidity
    00:00 +26°C° 0.3 mm 2 mps 760 mmHg 95%
    01:00 +25°C° 0.2 mm 2 mps 759 mmHg 96%
    02:00 +25°C° 0.2 mm 2 mps 759 mmHg 96%
    03:00 +25°C° 0.2 mm 2 mps 758 mmHg 97%
    04:00 +25°C° 0 mm 2 mps 758 mmHg 97%
    05:00 +25°C° 0 mm 2 mps 759 mmHg 97%
    06:00 +25°C° 0 mm 2 mps 759 mmHg 97%
    07:00 +26°C° 0 mm 2 mps 759 mmHg 92%
    08:00 +27°C° 0 mm 3 mps 760 mmHg 87%
    09:00 +29°C° 0 mm 3 mps 760 mmHg 82%
    10:00 +30°C° 0 mm 2 mps 760 mmHg 73%
    11:00 +32°C° 0 mm 2 mps 760 mmHg 63%
    12:00 +35°C° 0 mm 2 mps 760 mmHg 53%
    13:00 +34°C° 0.1 mm 2 mps 759 mmHg 57%
    14:00 +33°C° 0.1 mm 1 mps 758 mmHg 60%
    15:00 +33°C° 0.1 mm 1 mps 757 mmHg 64%
    16:00 +31°C° 0.4 mm 2 mps 757 mmHg 74%
    17:00 +29°C° 0.4 mm 2 mps 757 mmHg 83%
    18:00 +27°C° 0.4 mm 2 mps 757 mmHg 93%
    19:00 +27°C° 0 mm 2 mps 758 mmHg 93%
    20:00 +26°C° 0 mm 2 mps 758 mmHg 94%
    21:00 +26°C° 0 mm 2 mps 759 mmHg 94%
    22:00 +26°C° 0 mm 2 mps 759 mmHg 95%
    23:00 +26°C° 0 mm 2 mps 759 mmHg 95%

    Day after tomorrow, 8 June, Monday

    Time Temperature Precipitation Wind Pressure Humidity
    00:00 +25°C° 0 mm 2 mps 759 mmHg 95%
    01:00 +25°C° 0 mm 2 mps 759 mmHg 96%
    02:00 +25°C° 0 mm 2 mps 758 mmHg 96%
    03:00 +25°C° 0 mm 2 mps 758 mmHg 97%
    04:00 +25°C° 0 mm 2 mps 758 mmHg 97%
    05:00 +25°C° 0 mm 2 mps 758 mmHg 97%
    06:00 +24°C° 0 mm 2 mps 758 mmHg 97%
    07:00 +26°C° 0 mm 2 mps 758 mmHg 92%
    08:00 +27°C° 0 mm 2 mps 759 mmHg 87%
    09:00 +29°C° 0 mm 2 mps 759 mmHg 82%
    10:00 +30°C° 0 mm 2 mps 759 mmHg 72%
    11:00 +32°C° 0 mm 1 mps 759 mmHg 63%
    12:00 +34°C° 0 mm 1 mps 758 mmHg 53%
    13:00 +33°C° 0.1 mm 1 mps 758 mmHg 58%
    14:00 +33°C° 0.1 mm 1 mps 757 mmHg 62%
    15:00 +32°C° 0.1 mm 1 mps 756 mmHg 66%
    16:00 +31°C° 0.4 mm 1 mps 756 mmHg 75%
    17:00 +29°C° 0.4 mm 2 mps 756 mmHg 84%
    18:00 +27°C° 0.4 mm 2 mps 756 mmHg 92%
    19:00 +27°C° 0.2 mm 2 mps 757 mmHg 93%
    20:00 +26°C° 0.2 mm 2 mps 757 mmHg 94%
    21:00 +26°C° 0.2 mm 2 mps 758 mmHg 94%
    22:00 +25°C° 0.1 mm 2 mps 758 mmHg 95%
    23:00 +25°C° 0.1 mm 2 mps 758 mmHg 95%

    9 June, Tuesday

    Time Temperature Precipitation Wind Pressure Humidity
    00:00 +25°C° 0.1 mm 2 mps 758 mmHg 95%
    01:00 +25°C° 0.2 mm 2 mps 758 mmHg 95%
    02:00 +25°C° 0.2 mm 2 mps 757 mmHg 96%
    03:00 +25°C° 0.2 mm 2 mps 757 mmHg 96%
    04:00 +24°C° 0.1 mm 2 mps 757 mmHg 96%
    05:00 +24°C° 0.1 mm 2 mps 757 mmHg 97%
    06:00 +24°C° 0.1 mm 2 mps 757 mmHg 97%
    07:00 +26°C° 0.1 mm 2 mps 758 mmHg 91%
    08:00 +27°C° 0.1 mm 2 mps 758 mmHg 84%
    09:00 +29°C° 0.1 mm 2 mps 759 mmHg 78%
    10:00 +31°C° 0.1 mm 2 mps 758 mmHg 70%
    11:00 +32°C° 0.1 mm 1 mps 758 mmHg 62%
    12:00 +34°C° 0.1 mm 1 mps 757 mmHg 55%
    13:00 +33°C° 0.3 mm 1 mps 757 mmHg 59%
    14:00 +34°C° 0.3 mm 2 mps 756 mmHg 63%
    15:00 +32°C° 0.3 mm 2 mps 756 mmHg 67%
    16:00 +31°C° 0.6 mm 2 mps 756 mmHg 76%
    17:00 +29°C° 0.6 mm 2 mps 756 mmHg 84%
    18:00 +27°C° 0.6 mm 3 mps 756 mmHg 93%
    19:00 +27°C° 0.3 mm 2 mps 757 mmHg 94%
    20:00 +26°C° 0.3 mm 2 mps 757 mmHg 94%
    21:00 +26°C° 0.3 mm 2 mps 758 mmHg 95%
    22:00 +25°C° 0.1 mm 2 mps 758 mmHg 95%
    23:00 +25°C° 0.1 mm 2 mps 758 mmHg 95%

    10 June, Wednesday

    Time Temperature Precipitation Wind Pressure Humidity
    00:00 +25°C° 0.1 mm 2 mps 758 mmHg 95%
    01:00 +25°C° 0.2 mm 1 mps 757 mmHg 95%
    02:00 +25°C° 0.2 mm 1 mps 757 mmHg 95%
    03:00 +25°C° 0.2 mm 1 mps 756 mmHg 96%
    04:00 +24°C° 0.4 mm 2 mps 757 mmHg 96%
    05:00 +24°C° 0.4 mm 2 mps 757 mmHg 96%
    06:00 +24°C° 0.4 mm 2 mps 757 mmHg 96%
    07:00 +26°C° 0.5 mm 2 mps 758 mmHg 92%
    08:00 +27°C° 0.5 mm 2 mps 758 mmHg 87%
    09:00 +28°C° 0.5 mm 2 mps 759 mmHg 83%
    10:00 +29°C° 0.8 mm 2 mps 759 mmHg 82%
    11:00 +30°C° 0.8 mm 2 mps 758 mmHg 81%
    12:00 +31°C° 0.8 mm 2 mps 758 mmHg 79%
    13:00 +31°C° 0.7 mm 2 mps 758 mmHg 80%
    14:00 +31°C° 0.7 mm 2 mps 757 mmHg 82%
    15:00 +31°C° 0.7 mm 2 mps 757 mmHg 83%
    16:00 +29°C° 0.5 mm 2 mps 757 mmHg 86%
    17:00 +28°C° 0.5 mm 2 mps 757 mmHg 89%
    18:00 +27°C° 0.5 mm 2 mps 757 mmHg 93%
    19:00 +27°C° 0.1 mm 2 mps 757 mmHg 93%
    20:00 +26°C° 0.1 mm 2 mps 758 mmHg 94%
    21:00 +26°C° 0.1 mm 2 mps 759 mmHg 94%
    22:00 +25°C° 0.1 mm 2 mps 759 mmHg 95%
    23:00 +25°C° 0.1 mm 2 mps 759 mmHg 95%

    11 June, Thursday

    Time Temperature Precipitation Wind Pressure Humidity
    00:00 +25°C° 0.1 mm 2 mps 759 mmHg 95%
    01:00 +25°C° 0.2 mm 2 mps 758 mmHg 96%
    02:00 +25°C° 0.2 mm 1 mps 758 mmHg 96%
    03:00 +24°C° 0.2 mm 1 mps 757 mmHg 96%
    04:00 +24°C° 0.2 mm 1 mps 758 mmHg 96%
    05:00 +24°C° 0.2 mm 1 mps 758 mmHg 97%
    06:00 +24°C° 0.2 mm 1 mps 758 mmHg 97%
    07:00 +26°C° 0 mm 1 mps 758 mmHg 91%
    08:00 +27°C° 0 mm 1 mps 759 mmHg 85%
    09:00 +29°C° 0 mm 1 mps 759 mmHg 79%
    10:00 +31°C° 0 mm 1 mps 759 mmHg 70%
    11:00 +32°C° 0 mm 1 mps 759 mmHg 61%
    12:00 +34°C° 0 mm 1 mps 758 mmHg 52%
    13:00 +33°C° 0.1 mm 1 mps 758 mmHg 57%
    14:00 +33°C° 0.1 mm 1 mps 757 mmHg 62%
    15:00 +32°C° 0.1 mm 1 mps 756 mmHg 66%
    16:00 +31°C° 0.3 mm 1 mps 757 mmHg 75%
    17:00 +29°C° 0.3 mm 2 mps 757 mmHg 84%
    18:00 +27°C° 0.3 mm 2 mps 757 mmHg 92%
    19:00 +27°C° 0.6 mm 2 mps 757 mmHg 93%
    20:00 +26°C° 0.6 mm 2 mps 758 mmHg 94%
    21:00 +25°C° 0.6 mm 2 mps 759 mmHg 95%
    22:00 +25°C° 0.2 mm 2 mps 759 mmHg 95%
    23:00 +25°C° 0.2 mm 2 mps 759 mmHg 96%
    Show more